User: anonymous   Login
Location: Borealis Mine
(38.3824°N, 118.7610°W)
Time: 06:45:37
(UTC+00:00)
Language:

Cosmos 1666 - Orbit

View from above orbital plane
View from above orbital plane
View from above satellite
View from above satellite

Ground track
Ground track

The orbit data is extracted from the following two-line orbital elements,

1 15889U 85058A   22276.87031920  .00009613  00000-0  41389-3 0  9993
2 15889  82.4861 232.0794 0016322 157.7823 202.4124 15.22348435 35567
Epoch (UTC): 03 October 2022 20:53:15
Eccentricity: 0.0016322
inclination: 82.4861°
perigee height: 487 km
apogee height: 510 km
right ascension of ascending node: 232.0794°
argument of perigee: 157.7823°
revolutions per day: 15.22348435
mean anomaly at epoch: 202.4124°
orbit number at epoch: 3556

The dashed part of the orbit path shows where the satellite is in the earth's shadow,  

DLR